SCOUT X-4 DEB, 2011

Orbit data source: Space-Track

SCOUT X-4 DEB, 2011 is space debris in LEO originally from a launch on Thu, 29 Apr 1965 UTC launched from the Wallops Island (WLPIS). Debris objects in space refer to the collection of defunct objects orbiting the Earth. Examples of debris include non-operational satellites, rocket bodies, and fragments generated from explosions, collisions, or faulty payload assembly.

Loading next visibility...
Identifier
2011, 1965-032D
Orbit
LEO
Last TLE update
3 days ago
Origin
Manufacturer
Unknown
Mission
Spacecraft
Bus & Motor
Unknown
Mass
Unknown
Launch date (UTC)
1965-04-29 (60 years ago)
Launch vehicle
Unknown
Launch site
Wallops Island (WLPIS)
Object type
Payload
Rocket body
Debris
Shape & HBR
Unknown
Radar Cross Section
Small (<0.1 m²)

Expand to show TLE details & history

TLE from 3 days ago
0 SCOUT X-4 DEB
1 02011U 65032D   25186.06148836  .00000469  00000-0  84544-3 0  9995
2 02011  41.1968 171.0189 0235934 281.3989 129.1585 13.40435388930730
Epoch: 2025-07-05T01:28Z
TLE epoch observation values (Epoch: 2025-07-05T01:28:32.594Z)
Latitude
31.66891°
Longitude
-89.90085°
Altitude
1,222.378 km
Speed
7.192 km/s
True Right ascension
14h 22m 09s
True Declination
31° 31' 29"
Sunlit
Object was in daylight at epoch
Visualization orbit readout
Latitude
40.12088°
Longitude
-74.87749°
Altitude
1,241.87 km
Speed
7.175 km/s
Apparent Right ascension
11h 42m 55s
Apparent Declination
10° 20' 38"
Sunlit
Object is in daylight
Visualization observer readout
Local Sidereal Time
18:35:47
Azimuth
286.409° WNW
Elevation
-3.284°
Doppler factor
1
Orbital elements
Apogee altitude
1,286.383 km
Perigee altitude
933.055 km
Semi-major axis
7,487.856 km
Eccentricity
0.02359
Inclination
41.1968°
RAAN
171.0189°
Arg. of periapsis
281.3989°
True anomaly
Unknown
Mean anomaly
129.1585°
Eccentric anomaly
Unknown
Mean motion
3.34971 °/min
Orbital period
107.47 mins
BSTAR
0.00084544
Loading maneuver chart data...
Loading SW <> Apogee altitude chart data...
Loading historical data...
Loading historical data...
Loading historical data...
Loading historical data...
Loading historical data...
Loading historical data...
Loading historical data...
Other satellites on launch #32 in the year 1965 (1965-04-29 UTC)

SCOUT X-4 DEB Visibility forecast

Observer location: undefined°, undefined°

Span
Click to sort rows by Start time (UTC) header in descending order
Start Az.
Max El. time (UTC)
Max El. Az.
Max El.
End time (UTC)
End Az.
16 mins2025-07-08 06:34:22.961Z283.746° WNW2025-07-08 06:42:22.961Z203.642° SW42.839°2025-07-08 06:50:22.961Z123.047° SE
11 mins2025-07-08 08:30:22.961Z266.907° W2025-07-08 08:35:22.961Z221.786° SW24.753°2025-07-08 08:41:22.961Z168.997° S
10 mins2025-07-09 00:10:22.961Z190.446° SSW2025-07-09 00:14:22.961Z146.891° SSE27.008°2025-07-09 00:20:22.961Z87.513° E
13 mins2025-07-09 02:02:22.961Z241.018° WSW2025-07-09 02:07:22.961Z189.24° SSW43.674°2025-07-09 02:15:22.961Z76.759° E
14 mins2025-07-09 03:55:22.961Z272.151° WNW2025-07-09 04:01:22.961Z314.234° NW44.42°2025-07-09 04:09:22.961Z87.606° E
14 mins2025-07-09 05:49:22.961Z282.404° WNW2025-07-09 05:56:22.961Z165.366° S44.018°2025-07-09 06:03:22.961Z115.473° SE
|